China Lake, CA

4:00 PM PDT on May 29, 2017 (GMT -0700)
China Lake NAWS

Weather History for KNID - October, 2012

Change the Weather History Date:

Friday, October 19, 2012

  Actual Average Record
Temperature  
Mean Temperature 68 °F -  
Max Temperature 90 °F 77 °F 91 °F (2003)
Min Temperature 46 °F 49 °F 39 °F (1999)
Cooling Degree Days 3    
Growing Degree Days 18 (Base 50)    
Moisture  
Dew Point 28 °F    
Average Humidity 24    
Maximum Humidity 42    
Minimum Humidity 10    
Precipitation  
Precipitation 0.00 in - - ()
Sea Level Pressure  
Sea Level Pressure 29.92 in    
Wind  
Wind Speed 5 mph (South)    
Max Wind Speed 10 mph    
Max Gust Speed -    
Visibility 10 miles    
Events      
Averages and records for this station are not official NWS values.
T = Trace of Precipitation, MM = Missing Value Source: NWS Daily Summary

Daily Weather History Graph

Daily Weather History Graph

Search for Another Location

Airport or City:

Trip Planner

Search our weather history database for the weather conditions in past years. The results will help you decide how hot, cold, wet, or windy it might be!

Date:

Astronomy

Oct. 19, 2012 Rise Set
Actual Time 7:01 AM PDT 6:09 PM PDT
Civil Twilight 6:35 AM PDT 6:35 PM PDT
Nautical Twilight 6:05 AM PDT 7:04 PM PDT
Astronomical Twilight 5:36 AM PDT 7:34 PM PDT
Moon 11:41 AM PDT (10/19) 9:59 PM PDT (10/19)
Length of Visible Light 11h 59m
Length of Day
11h 08m
Waxing Crescent, 24% of the Moon is Illuminated
Oct 19
Waxing Crescent
Oct 21
First Quarter
Oct 29
Full
Nov 6
Last Quarter
Nov 13
New

Hourly Weather History & Observations

Time (PDT) Temp. Dew Point Humidity Pressure Visibility Wind Dir Wind Speed Gust Speed Precip Events Conditions
12:56 AM 57.9 °F 21.9 °F 25% 29.99 in 10.0 mi SW 5.8 mph - N/A   Clear
1:56 AM 54.0 °F 21.9 °F 29% 29.99 in 10.0 mi SW 6.9 mph - N/A   Clear
2:56 AM 53.1 °F 23.0 °F 31% 29.99 in 10.0 mi NW 5.8 mph - N/A   Clear
3:56 AM 50.0 °F 21.0 °F 32% 29.98 in 10.0 mi SSW 6.9 mph - N/A   Clear
4:56 AM 48.9 °F 18.0 °F 29% 29.98 in 10.0 mi Calm Calm - N/A   Clear
5:56 AM 48.0 °F 21.9 °F 36% 29.99 in 10.0 mi SSW 3.5 mph - N/A   Clear
6:56 AM 46.9 °F 21.0 °F 36% 30.01 in 10.0 mi Calm Calm - N/A   Clear
7:56 AM 54.0 °F 23.0 °F 30% 30.02 in 10.0 mi South 4.6 mph - N/A   Clear
8:56 AM 64.0 °F 26.1 °F 24% 30.03 in 10.0 mi North 3.5 mph - N/A   Clear
9:56 AM 69.1 °F 26.1 °F 20% 30.02 in 10.0 mi Calm Calm - N/A   Clear
10:56 AM 75.9 °F 25.0 °F 15% 30.00 in 10.0 mi Calm Calm - N/A   Clear
11:56 AM 82.0 °F 23.0 °F 11% 29.97 in 10.0 mi East 4.6 mph - N/A   Clear
12:56 PM 86.0 °F 23.0 °F 10% 29.93 in 10.0 mi NNE 4.6 mph - N/A   Clear
1:56 PM 87.1 °F 27.0 °F 11% 29.89 in 10.0 mi Calm Calm - N/A   Clear
2:56 PM 88.0 °F 27.0 °F 11% 29.86 in 10.0 mi Variable 3.5 mph - N/A   Clear
3:56 PM 90.0 °F 25.0 °F 10% 29.84 in 10.0 mi Calm Calm - N/A   Clear
4:56 PM 88.0 °F 26.1 °F 11% 29.83 in 10.0 mi East 3.5 mph - N/A   Clear
5:56 PM 84.0 °F 25.0 °F 12% 29.82 in 10.0 mi East 5.8 mph - N/A   Clear
6:56 PM 82.0 °F 25.0 °F 12% 29.83 in 10.0 mi SW 8.1 mph - N/A   Clear
7:56 PM 75.0 °F 42.1 °F 31% 29.83 in 10.0 mi SSE 8.1 mph - N/A   Clear
8:56 PM 75.0 °F 46.9 °F 37% 29.82 in 10.0 mi South 10.4 mph - N/A   Clear
9:56 PM 73.0 °F 46.0 °F 38% 29.82 in 10.0 mi South 10.4 mph - N/A   Clear
10:56 PM 71.1 °F 46.9 °F 42% 29.82 in 10.0 mi South 9.2 mph - N/A   Clear
11:56 PM 70.0 °F 46.0 °F 42% 29.81 in 10.0 mi SSW 8.1 mph - N/A   Clear